Weather History for KTAN - February, 2013

Change the Weather History Date:

Saturday, February 2, 2013

  Actual Average Record
Temperature  
Mean Temperature 24 °F -  
Max Temperature 30 °F 39 °F 60 °F (1989)
Min Temperature 19 °F 20 °F -11 °F (1961)
Degree Days  
Heating Degree Days 40    
Moisture  
Dew Point 8 °F    
Average Humidity 47    
Maximum Humidity 58    
Minimum Humidity 35    
Precipitation  
Precipitation 0.00 in - - ()
Sea Level Pressure  
Sea Level Pressure 30.14 in    
Wind  
Wind Speed 7 mph (WSW)    
Max Wind Speed 12 mph    
Max Gust Speed 20 mph    
Visibility 10 miles    
Events      
Averages and records for this station are not official NWS values.
T = Trace of Precipitation, MM = Missing Value Source: NWS Daily Summary

Daily Weather History Graph

Daily Weather History Graph

Search for Another Location

Airport or City:

Trip Planner

Search our weather history database for the weather conditions in past years. The results will help you decide how hot, cold, wet, or windy it might be!

Date:

Astronomy

Feb. 02, 2013 Rise Set
Actual Time 6:55 AM EST 5:00 PM EST
Civil Twilight 6:25 AM EST 5:30 PM EST
Nautical Twilight 5:52 AM EST 6:03 PM EST
Astronomical Twilight 5:19 AM EST 6:36 PM EST
Moon No Moon Rise 9:56 AM EST (2/2)
Length of Visible Light 11h 04m
Length of Day
10h 05m
Waning Gibbous, 60% of the Moon is Illuminated
Feb 2
Waning Gibbous
Feb 3
Last Quarter
Feb 10
New
Feb 17
First Quarter
Feb 25
Full

Hourly Weather History & Observations

Time (EST) Temp. Windchill Dew Point Humidity Pressure Visibility Wind Dir Wind Speed Gust Speed Precip Events Conditions
12:52 AM 23.0 °F 14.7 °F 3.9 °F 44% 30.11 in 10.0 mi West 6.9 mph - N/A   Clear
1:52 AM 21.9 °F 13.4 °F 5.0 °F 48% 30.13 in 10.0 mi West 6.9 mph - N/A   Clear
2:52 AM 21.9 °F 13.4 °F 5.0 °F 48% 30.14 in 10.0 mi WSW 6.9 mph - N/A   Partly Cloudy
3:52 AM 21.9 °F 12.5 °F 5.0 °F 48% 30.15 in 10.0 mi West 8.1 mph - N/A   Clear
4:52 AM 21.9 °F 12.5 °F 3.0 °F 44% 30.18 in 10.0 mi WNW 8.1 mph - N/A   Clear
5:52 AM 19.9 °F - 3.9 °F 50% 30.20 in 10.0 mi Calm Calm - N/A   Clear
6:52 AM 19.0 °F 13.9 °F 3.9 °F 52% 30.22 in 10.0 mi West 3.5 mph - N/A   Clear
7:52 AM 21.0 °F 16.2 °F 5.0 °F 50% 30.24 in 10.0 mi West 3.5 mph - N/A   Clear
8:52 AM 24.1 °F 15.2 °F 1.9 °F 38% 30.26 in 10.0 mi West 8.1 mph - N/A   Clear
9:52 AM 26.1 °F 17.6 °F 1.9 °F 35% 30.25 in 10.0 mi West 8.1 mph - N/A   Clear
10:52 AM 26.1 °F 20.5 °F 3.0 °F 37% 30.24 in 10.0 mi WSW 4.6 mph 16.1 mph N/A   Clear
11:52 AM 28.9 °F 21.1 °F 3.9 °F 35% 30.21 in 10.0 mi WSW 8.1 mph - N/A   Clear
1:52 PM 30.0 °F 20.5 °F 8.1 °F 40% 30.14 in 10.0 mi SW 11.5 mph 19.6 mph N/A   Clear
3:52 PM 30.0 °F 20.5 °F 10.9 °F 45% 30.11 in 10.0 mi SSW 11.5 mph - N/A   Overcast
4:52 PM 28.9 °F 21.1 °F 10.0 °F 45% 30.10 in 10.0 mi SSW 8.1 mph 17.3 mph N/A   Mostly Cloudy
5:52 PM 28.9 °F 21.1 °F 12.0 °F 49% 30.09 in 10.0 mi SW 8.1 mph - N/A   Clear
6:52 PM 28.9 °F 21.9 °F 12.0 °F 49% 30.08 in 10.0 mi SW 6.9 mph - N/A   Scattered Clouds
7:52 PM 28.9 °F 22.8 °F 12.9 °F 51% 30.07 in 10.0 mi WSW 5.8 mph - N/A   Clear
8:52 PM 28.9 °F 25.2 °F 14.0 °F 54% 30.07 in 10.0 mi Variable 3.5 mph - N/A   Overcast
9:52 PM 28.9 °F 25.2 °F 14.0 °F 54% 30.06 in 10.0 mi WSW 3.5 mph - N/A   Overcast
10:52 PM 28.9 °F - 14.0 °F 54% 30.05 in 10.0 mi Calm Calm - N/A   Overcast
11:52 PM 28.0 °F 18.6 °F 15.1 °F 58% 30.06 in 10.0 mi WSW 10.4 mph 17.3 mph N/A   Overcast